Regional Weather Roundup
Issued by NWS

Home | Current Version | Previous Version | Text Only | Print | Product List | Glossary On
Versions: 1 2 3 4 5 6 7 8 9 10 11 12 13 14 15 16 17 18 19 20 21 22 23 24 25 26 27 28 29 30 31 32 33 34 35 36 37 38 39 40 41 42 43 44 45 46 47 48 49 50
000
ASUS43 KDMX 270407
RWRIA

WEATHER ROUNDUP FOR IOWA
NATIONAL WEATHER SERVICE DES MOINES IA
1100 PM CDT WED AUG 26 2015

NOTE: "FAIR" INDICATES FEW OR NO CLOUDS BELOW 12,000 FEET WITH NO
SIGNIFICANT WEATHER AND/OR OBSTRUCTIONS TO VISIBILITY.

* - THESE STATIONS ARE NOT NWS STATIONS...THUS NOT UNDER NWS
QUALITY CONTROL.  THEY ALSO DO NOT REPORT WEATHER SUCH
AS PRECIPITATION OR FOG.

IAZ001>003-012>014-020>022-031>034-043>046-270500-
   NORTHWEST IOWA

CITY           SKY/WX    TMP DP  RH WIND       PRES   REMARKS
CARROLL *      CLOUDY    55  55 100 SE3       30.13S
CHEROKEE *     CLEAR     59  59 100 SE3       30.11S
DENISON *      CLOUDY    63  59  88 SE5       30.10S
LE MARS *      CLEAR     64  61  88 SE5       30.09S
ORANGE CITY *  CLEAR     64  61  88 CALM      30.09F
SHELDON *      CLEAR     59  57  94 SE6       30.09S
SIOUX CITY     CLEAR     65  60  84 SE9       30.07S
SPENCER        CLEAR     61  54  77 SE9       30.11S
STORM LAKE *   CLEAR     61  57  88 SE8       30.12F
$$

IAZ055>058-069>071-079>083-090>094-270500-
   SOUTHWEST IOWA

CITY           SKY/WX    TMP DP  RH WIND       PRES   REMARKS
ATLANTIC *     CLOUDY    63  57  82 CALM      30.12F
AUDUBON *      CLEAR     57  54  88 CALM      30.14F
CLARINDA *     CLEAR     64  59  82 CALM      30.14S
COUNCIL BLFS * CLEAR     64  61  88 SE7       30.10F
CRESTON *      CLEAR     61  55  82 SE5       30.16S
HARLAN  *      CLEAR     61  61 100 CALM      30.15F
LAMONI         CLEAR     67  56  67 SE5       30.14F
RED OAK *      CLEAR     64  61  88 CALM      30.12S
SHENANDOAH *   PTCLDY    66  61  82 E5        30.11S
$$

IAZ047>049-059>061-072>074-084-270500-
   CENTRAL IOWA

CITY           SKY/WX    TMP DP  RH WIND       PRES   REMARKS
AMES           CLEAR     56  55  97 CALM      30.14S
ANKENY *       CLEAR     57  57 100 CALM      30.14S
CHARITON *     MOCLDY    61  57  88 SE6       30.14F
DES MOINES     PTCLDY    68  52  56 SE7       30.14S
GRINNELL*      CLEAR     59  54  82 CALM      30.16F
KNOXVILLE *    CLEAR     63  55  77 SE5       30.13F
MARSHALLTOWN   CLEAR     58  55  90 CALM      30.15R
PELLA *        CLEAR     61  57  88 CALM      30.15F
PERRY *          N/A     57  55  94 SE3       30.14R
$$

IAZ004>006-015-016-023>025-035-036-270500-
   NORTH CENTRAL IOWA

CITY           SKY/WX    TMP DP  RH WIND       PRES   REMARKS
ALGONA *       CLEAR     59  55  88 SE7       30.13F
CLARION *      CLEAR     57  54  88 SE7       30.14S
ESTHERVILLE    CLEAR     57  55  93 S5        30.11F
FORT DODGE *   CLEAR     55  52  88 CALM      30.14S
MASON CITY     CLEAR     55  52  89 S6        30.15F
FOREST CITY *  CLEAR     54  52  94 SE3       30.14S
IOWA FALLS *     N/A     57  55  94 CALM      30.16F
$$

IAZ007>011-017>019-026>030-037>042-050>054-066-270500-
   NORTHEAST IOWA

CITY           SKY/WX    TMP DP  RH WIND       PRES   REMARKS
CEDAR RAPIDS   CLEAR     58  55  90 CALM      30.14F
CHARLES CITY * CLEAR     55  55 100 CALM      30.16S
CLINTON *      CLEAR     57  54  88 SE5       30.18F
DECORAH *      CLOUDY    61  52  72 CALM      30.15S
DUBUQUE        CLEAR     60  54  80 E5        30.16F
MONTICELLO *   CLEAR     54  54 100 CALM      30.16S
OELWEIN *        N/A    N/A N/A N/A CALM      30.16S
WATERLOO       CLEAR     56  53  90 CALM      30.15R
$$

IAZ064-065-067-068-078-270500-
   EAST CENTRAL IOWA

CITY           SKY/WX    TMP DP  RH WIND       PRES   REMARKS
DAVENPORT      CLEAR     55  54  96 E5        30.16S
IOWA CITY      CLEAR     62  56  80 CALM      30.16S
MT. PLEASANT * CLEAR     61  54  77 CALM      30.16S
MUSCATINE *    CLEAR     61  55  82 CALM      30.16S
QUAD CITIES    CLEAR     59  55  87 E3        30.16R
$$

IAZ062-063-075>077-085>089-095>099-270500-
   SOUTHEAST IOWA

CITY           SKY/WX    TMP DP  RH WIND       PRES   REMARKS
BURLINGTON     CLEAR     62  58  86 CALM      30.16S
FAIRFIELD *    CLEAR     59  54  82 E3        30.16S
FORT MADISON * CLEAR     61  57  88 CALM      30.16F
KEOKUK *       CLEAR     61  59  94 CALM      30.15F
OSKALOOSA *      N/A     55  54  94 E3        30.15F
CENTERVILLE *  CLEAR     59  57  94 CALM      30.17S
OTTUMWA        CLEAR     59  55  87 E6        30.14S
WASHINGTON *     N/A    N/A N/A N/A MISG        N/A
$$

ABBREVIATIONS USED IN REMARKS
   TC - TEMPERATURES IN CELSIUS
  WCI - WIND CHILL INDEX
   HX - HEAT INDEX
  VSB - VISIBILITY
$$




USA.gov is the U.S. government's official web portal to all federal, state and local government web resources and services.